www.pogodaiklimat.ru

Погода и климат >> Архив погоды >> Норвегия >> Сволваер аэропорт


ПОГОДА в Сволваер аэропорту

  • Прогноз погоды в Сволваер аэропорту
  • Монитор погоды в Сволваер аэропорту

АРХИВ ПОГОДЫ в Сволваер аэропорту

Время (UTC), дата Ветер
(напр.,м/с)
 
Видим.   Явления Облачность Т
(С)
Тd
(С)
f
(%)
Тe
(С)
Тes
(С)
Комфортность P
(гПа)
Po
(гПа)
Тmin
(С)
Tmax
(С)
R
(мм)
R24
(мм)
S
(см)
10 11.08 В 5
{8}
н/о н/о +17.8 +9.4 58 +17 +17 1002.8 1001.8
11 11.08 В 5
{7}
н/о н/о +17.7 +9.9 60 +17 +17 1002.8 1001.7
12 11.08 В 3
{10}
н/о н/о +17.4 +11.0 66 +17 +17 1002.8 1001.8
13 11.08 СВ 2
{4}
н/о н/о +18.1 +10.0 59 +19 +19 1002.8 1001.7
14 11.08 В 2
{3}
н/о н/о +18.8 +10.4 58 +20 +20 1002.6 1001.6
15 11.08 штиль 0 н/о н/о +18.9 +10.7 59 +20 +20 1002.8 1001.8
16 11.08 СЗ 2
{3}
н/о н/о +17.1 +12.6 75 +17 +17 1002.8 1001.8
17 11.08 С 4
{5}
н/о н/о +16.8 +11.7 72 +16 +16 1002.7 1001.7
18 11.08 СВ 3
{5}
н/о н/о +16.7 +12.1 74 +16 +16 1002.7 1001.7 +16.4 +19.1
19 11.08
{5}
н/о н/о +16.8 +11.5 71 1002.7 1001.7
20 11.08 СВ 4
{6}
н/о н/о +16.8 +11.3 70 +16 +16 1002.6 1001.6
21 11.08 СВ 6
{8}
н/о н/о +17.4 +11.0 66 +17 +17 1002.7 1001.6
22 11.08
{07}
н/о 1001.5
23 11.08 СВ 3
{7}
н/о н/о +17.0 +10.6 66 +17 +17 1002.7 1001.6
00 12.08 С 4
{8}
н/о н/о +17.1 +10.5 65 +17 +17 1002.5 1001.4
01 12.08 СВ 4
{6}
н/о н/о +16.5 +10.4 67 +16 +16 1002.4 1001.4
02 12.08 СВ 2
{6}
н/о н/о +15.6 +10.8 73 +16 +16 1002.4 1001.3
03 12.08 В 1
{3}
н/о н/о +15.6 +10.8 73 +16 +16 1002.2 1001.1
04 12.08 СВ 3
{5}
н/о н/о +16.7 +11.0 69 +16 +16 1002.0 1001.0
05 12.08 СВ 3
{7}
н/о н/о +16.9 +11.4 70 +17 +17 1001.9 1000.9
06 12.08 СВ 5
{7}
н/о н/о +17.7 +11.3 66 +17 +17 1001.7 1000.7 +15.2 +17.9
07 12.08 СВ 5
{7}
н/о н/о +17.9 +11.7 67 +18 +18 1001.6 1000.6
08 12.08 СВ 3
{7}
н/о н/о +18.9 +12.0 64 +20 +20 1001.7 1000.7
09 12.08 СВ 4
{5}
н/о н/о +20.0 +11.5 58 +22 +22 комфорт 1001.8 1000.8
10 12.08 В 3
{4}
н/о н/о +20.4 +11.9 58 +23 +23 комфорт 1001.7 1000.7
11 12.08 В 2
{6}
н/о н/о +21.4 +11.4 53 +23 +23 комфорт 1001.7 1000.7
12 12.08 В 2
{7}
н/о н/о +21.7 +11.4 52 +24 +24 комфорт 1001.7 1000.7
13 12.08 В 2
{3}
н/о н/о +21.8 +11.5 52 +24 +24 комфорт 1001.4 1000.4
14 12.08 В 4
{5}
н/о н/о +21.4 +11.7 54 +23 +23 комфорт 1001.1 1000.1
15 12.08 В 3
{5}
н/о н/о +21.7 +11.1 51 +24 +24 комфорт 1001.1 1000.1
16 12.08 В 2
{4}
н/о н/о +21.3 +11.6 54 +23 +23 комфорт 1001.1 1000.0
17 12.08 СВ 1
{2}
н/о н/о +21.4 +11.7 54 +23 +23 комфорт 1001.1 1000.1
18 12.08 С 3
{5}
н/о н/о +19.9 +11.9 60 +22 +22 комфорт 1001.2 1000.1 +17.0 +22.7
19 12.08 С 4
{6}
н/о н/о +18.3 +12.1 67 +18 +18 1001.4 1000.4
20 12.08 С 4
{5}
н/о н/о +17.5 +11.8 69 +17 +17 1001.4 1000.4
21 12.08 С 5
{6}
н/о н/о +16.5 +12.1 75 +16 +16 1001.7 1000.7
22 12.08 С 3
{6}
н/о н/о +16.4 +12.0 75 +16 +16 1002.1 1001.0
23 12.08 СЗ 2
{5}
н/о н/о +15.4 +12.0 80 +15 +15 1002.0 1001.0
00 13.08 В 1
{6}
н/о н/о +16.1 +11.5 74 +17 +17 1002.0 1000.9
01 13.08 С 2
{3}
н/о н/о +15.1 +11.5 79 +15 +15 1002.1 1001.0
02 13.08 С 2
{4}
н/о н/о +16.0 +11.4 74 +16 +16 1002.0 1000.9
03 13.08 С 2
{3}
н/о н/о +16.0 +11.4 74 +16 +16 1002.0 1001.0
04 13.08
{4}
н/о н/о +15.3 +11.7 79 1002.0 1001.0
05 13.08 С 2
{4}
н/о н/о +16.6 +12.2 75 +17 +17 1002.0 1001.0
06 13.08 С 4
{6}
н/о н/о +17.7 +12.8 73 +17 +17 1001.9 1000.9 +14.8 +19.9
07 13.08 В 6
{9}
н/о н/о +17.9 +11.9 68 +17 +17 1001.9 1000.8
08 13.08 В 1
{8}
н/о н/о +20.2 +11.7 58 +23 +23 комфорт 1002.0 1000.9
09 13.08 В 6
{8}
н/о н/о +18.8 +11.9 64 +19 +19 1001.7 1000.7
10 13.08 В 5
{8}
н/о н/о +19.3 +11.6 61 +20 +20 1001.5 1000.5
11 13.08 В 6
{9}
н/о н/о +19.1 +11.4 61 +20 +20 1001.3 1000.2
12 13.08 В 5
{9}
н/о н/о +19.8 +12.1 61 +21 +21 комфорт 1001.4 1000.3
13 13.08 В 5
{6}
н/о н/о +20.2 +11.4 57 +22 +22 комфорт 1001.1 1000.0
14 13.08 В 3
{6}
н/о н/о +20.7 +11.6 56 +23 +23 комфорт 1001.0 999.9
15 13.08 В 3
{5}
н/о н/о +20.5 +11.4 56 +23 +23 комфорт 1000.4 999.4
16 13.08 СВ 3
{5}
н/о н/о +19.7 +12.2 62 +21 +21 комфорт 1000.5 999.4
17 13.08
{7}
н/о н/о +19.5 +12.8 65 1000.3 999.3
18 13.08
{8}
н/о н/о +18.2 +12.0 67 1000.4 999.4 +17.5 +21.2
19 13.08 С 7
{9}
н/о н/о +17.1 +11.8 71 +16 +16 1000.2 999.2
20 13.08
{10}
н/о н/о +16.6 +11.8 73 1000.2 999.1
21 13.08
{10}
н/о н/о +16.0 +11.6 75 1000.2 999.2
22 13.08
{10}
н/о н/о +15.4 +12.0 80 1000.3 999.2
23 13.08 С 6
{9}
н/о н/о +14.6 +11.6 82 +13 +13 1000.4 999.3
00 14.08 С 6
{10}
н/о н/о +14.1 +11.6 85 +12 +12 1000.5 999.5
01 14.08 В 8
{9}
н/о н/о +15.8 +12.7 82 +14 +14 1000.6 999.6
02 14.08 Ю 3
{9}
н/о н/о +14.9 +14.1 95 +14 +14 1001.2 1000.2
03 14.08 Ю 4
{5}
н/о н/о +14.9 +14.1 95 +14 +14 1001.4 1000.4
04 14.08 Ю 4
{5}
н/о н/о +14.8 +14.2 96 +14 +14 1001.5 1000.4
05 14.08 ЮЗ 5
{6}
н/о н/о +14.3 +13.8 97 +13 +13 1001.6 1000.6
06 14.08 ЮЗ 5
{9}
н/о н/о +14.2 +13.6 96 +12 +12 1001.7 1000.6 +13.7 +18.2
07 14.08 ЮЗ 6
{8}
н/о н/о +14.1 +13.2 94 +12 +12 1001.8 1000.8
08 14.08 ЮЗ 6
{8}
н/о н/о +14.0 +12.7 92 +12 +12 1002.0 1001.0
09 14.08 ЮЗ 6
{7}
н/о н/о +14.0 +12.7 92 +12 +12 1002.3 1001.2
10 14.08 ЮЗ 6
{8}
н/о н/о +14.0 +12.2 89 +12 +12 1002.6 1001.5
11 14.08 ЮЗ 6
{8}
н/о н/о +13.5 +11.9 90 +11 +11 1002.8 1001.8
12 14.08 ЮЗ 6
{8}
н/о н/о +13.3 +12.0 92 +11 +11 1003.2 1002.1
13 14.08 ЮЗ 6
{7}
н/о н/о +13.2 +11.8 91 +11 +11 1003.4 1002.3
14 14.08 ЮЗ 6
{7}
н/о н/о +12.9 +11.8 93 +10 +10 1003.5 1002.5
15 14.08 ЮЗ 5
{7}
н/о н/о +13.4 +12.3 93 +11 +11 1003.7 1002.6
16 14.08 ЮЗ 6
{9}
н/о н/о +13.4 +12.1 92 +11 +11 1003.8 1002.8
17 14.08 ЮЗ 6
{8}
н/о н/о +13.1 +12.0 93 +11 +11 1003.8 1002.8
18 14.08 ЮЗ 7
{9}
н/о н/о +12.8 +11.5 92 +10 +10 1003.9 1002.9 +12.7 +14.3
19 14.08 ЮЗ 6
{9}
н/о н/о +12.9 +11.6 92 +10 +10 1004.1 1003.1
20 14.08 ЮЗ 6
{9}
н/о н/о +12.6 +11.8 95 +10 +10 1004.3 1003.3
21 14.08 ЮЗ 5
{8}
н/о н/о +12.5 +11.7 95 +10 +10 1004.6 1003.5
22 14.08 ЮЗ 4
{7}
н/о н/о +12.5 +11.7 95 +10 +10 1004.5 1003.5
23 14.08 ЮЗ 6
{9}
н/о н/о +12.6 +11.8 95 +10 +10 1004.6 1003.6
00 15.08 ЮЗ 4
{9}
н/о н/о +12.4 +11.6 95 +10 +10 1004.8 1003.8
01 15.08 ЮЗ 4
{7}
н/о н/о +12.3 +11.7 96 +10 +10 1004.9 1003.8
02 15.08 З 2
{6}
н/о н/о +12.0 +11.4 96 +11 +11 1004.9 1003.8
03 15.08 ЮЗ 4
{6}
н/о н/о +12.2 +11.4 95 +10 +10 1004.9 1003.8
04 15.08 ЮЗ 4
{6}
н/о н/о +12.2 +11.4 95 +10 +10 1004.9 1003.9
05 15.08 ЮЗ 4
{6}
н/о н/о +12.0 +11.4 96 +10 +10 1005.1 1004.1
06 15.08 ЮЗ 3
{7}
н/о н/о +12.3 +11.2 93 +11 +11 1005.3 1004.3 +11.9 +13.0
07 15.08 СЗ 2
{4}
н/о н/о +12.3 +11.0 92 +11 +11 1005.6 1004.5
08 15.08 СЗ 3
{4}
н/о н/о +11.7 +10.8 94 +10 +10 1005.7 1004.7
09 15.08 С 1
{3}
н/о н/о +12.3 +11.0 92 +12 +12 1006.0 1004.9
10 15.08 СВ 1
{2}
н/о н/о +12.6 +11.2 91 +13 +13 1006.1 1005.1
11 15.08 С 2
{3}
н/о н/о +12.6 +11.2 91 +12 +12 1006.3 1005.3
12 15.08 С 4
{4}
н/о н/о +12.6 +11.2 91 +11 +11 1006.7 1005.6
13 15.08 С 4
{5}
н/о н/о +12.6 +10.2 85 +11 +11 1007.0 1005.9
14 15.08 С 3
{5}
н/о н/о +12.3 +9.9 85 +11 +11 1007.2 1006.1
15 15.08 С 3
{5}
н/о н/о +12.7 +10.1 84 +11 +11 1007.3 1006.2
16 15.08 СЗ 2
{3}
н/о н/о +13.1 +10.1 82 +12 +12 1007.5 1006.5
17 15.08 С 4
{5}
н/о н/о +12.2 +9.4 83 +10 +10 1007.6 1006.5
18 15.08
{5}
н/о н/о +11.9 +9.5 85 1007.7 1006.6 +11.7 +13.2
19 15.08 С 3
{4}
н/о н/о +11.8 +9.4 85 +10 +10 1007.7 1006.6
20 15.08 СЗ 3
{5}
н/о н/о +11.4 +9.0 85 +10 +10 1007.7 1006.7
21 15.08 С 2
{4}
н/о н/о +11.2 +8.4 83 +10 +10 1007.7 1006.7
22 15.08 С 2
{3}
н/о н/о +11.0 +8.9 87 +10 +10 1007.8 1006.7
23 15.08 С 2
{3}
н/о н/о +11.0 +8.9 87 +10 +10 1007.7 1006.6
00 16.08 С 2
{5}
н/о н/о +10.9 +8.7 86 +10 +10 1007.4 1006.4
01 16.08 С 2
{3}
н/о н/о +10.6 +9.0 90 +9 +9 1007.2 1006.2
02 16.08 С 2
{3}
н/о н/о +10.3 +8.9 91 +9 +9 1007.1 1006.1
03 16.08 С 3
{3}
н/о н/о +9.7 +8.5 92 +7 +7 1006.8 1005.8
04 16.08 С 3
{4}
н/о н/о +9.8 +8.4 91 +7 +7 1006.7 1005.6
05 16.08 С 3
{4}
н/о н/о +10.4 +8.8 90 +8 +8 1006.5 1005.4
06 16.08
{4}
н/о н/о +12.9 +9.5 80 1006.2 1005.1 +9.6 +12.9
07 16.08 СВ 2
{3}
н/о н/о +14.1 +9.1 72 +14 +14 1005.8 1004.7
08 16.08 В 4
{6}
н/о н/о +14.3 +9.1 71 +13 +13 1005.3 1004.2
09 16.08 В 4
{6}
н/о н/о +14.6 +10.0 74 +13 +13 1004.8 1003.8
10 16.08 В 4
{7}
н/о н/о +15.0 +9.6 70 +14 +14 1004.6 1003.6
11 16.08 В 5
{6}
н/о н/о +14.9 +10.1 73 +13 +13 1004.5 1003.5
12 16.08 В 3
{7}
н/о н/о +15.3 +9.9 70 +15 +15 1004.5 1003.5
13 16.08 В 1
{3}
н/о н/о +15.8 +9.0 64 +17 +17 1004.5 1003.5
14 16.08 Ю 2
{2}
н/о н/о +15.8 +8.6 62 +16 +16 1004.6 1003.6
15 16.08 Ю 2
{3}
н/о н/о +15.6 +9.7 68 +16 +16 1004.3 1003.2
16 16.08 ЮЗ 4
{6}
н/о н/о +14.6 +10.2 75 +13 +13 1004.7 1003.7
17 16.08 Ю 2
{5}
н/о н/о +14.4 +9.6 73 +14 +14 1004.4 1003.3
18 16.08 ЮЗ 7
{8}
н/о н/о +12.8 +9.6 81 +10 +10 1005.1 1004.0 +12.8 +16.8
19 16.08 Ю 4
{8}
н/о н/о +12.5 +10.4 87 +11 +11 1005.3 1004.3
20 16.08 Ю 7
{8}
н/о н/о +12.9 +11.0 88 +10 +10 1005.1 1004.0
21 16.08 Ю 5
{8}
н/о н/о +13.0 +10.0 82 +11 +11 1004.9 1003.8
22 16.08 ЮЗ 4
{10}
н/о н/о +12.4 +9.4 82 +10 +10 1004.9 1003.8
23 16.08 З 5
{11}
н/о н/о +12.6 +8.9 78 +10 +10 1004.7 1003.7
00 17.08 Ю 5
{11}
н/о н/о +13.2 +10.0 81 +11 +11 1005.0 1003.9
01 17.08 Ю 5
{8}
н/о н/о +13.4 +9.1 75 +11 +11 1004.9 1003.8
02 17.08 Ю 6
{8}
н/о н/о +13.5 +8.8 73 +11 +11 1004.7 1003.7
03 17.08 Ю 6
{8}
н/о н/о +13.3 +9.2 76 +11 +11 1004.6 1003.6
04 17.08 Ю 5
{7}
н/о н/о +13.5 +9.6 77 +12 +12 1004.5 1003.4
05 17.08 Ю 4
{5}
н/о н/о +14.3 +9.1 71 +13 +13 1004.3 1003.3
06 17.08 ЮВ 5
{8}
н/о н/о +13.5 +10.1 80 +12 +12 1004.0 1003.0 +12.2 +14.6
07 17.08 В 7
{8}
н/о н/о +13.5 +9.8 78 +11 +11 1003.7 1002.7
08 17.08 В 6
{8}
н/о н/о +14.4 +9.6 73 +13 +13 1003.6 1002.6
09 17.08 В 5
{8}
н/о н/о +14.9 +9.3 69 +14 +14 1003.3 1002.2
10 17.08 В 5
{7}
н/о н/о +15.0 +8.5 65 +14 +14 1003.1 1002.0
11 17.08 В 4
{6}
н/о н/о +15.8 +8.3 61 +15 +15 1002.8 1001.8
12 17.08 СВ 5
{8}
н/о н/о +16.1 +7.1 55 +15 +15 1002.2 1001.2
13 17.08 СВ 4
{8}
н/о н/о +17.3 +7.7 53 +17 +17 1001.8 1000.8
14 17.08 СВ 4
{7}
н/о н/о +17.4 +8.8 57 +17 +17 1001.0 1000.0
15 17.08 СВ 6
{8}
н/о н/о +16.7 +8.7 59 +16 +16 1000.3 999.3
16 17.08 СВ 5
{9}
н/о н/о +16.8 +9.3 61 +16 +16 999.7 998.7
17 17.08 СВ 3
{8}
н/о н/о +17.6 +9.5 59 +18 +18 999.3 998.3
18 17.08 В 2
{9}
н/о н/о +17.4 +10.5 64 +18 +18 998.9 997.9 +13.5 +17.9
19 17.08 В 6
{8}
н/о н/о +17.5 +10.9 65 +17 +17 998.4 997.3
20 17.08 СВ 2
{15}
н/о н/о +16.8 +11.3 70 +17 +17 998.0 996.9
21 17.08 СВ 3
{9}
н/о н/о +16.0 +11.8 76 +16 +16 997.7 996.7
22 17.08 З 3
{7}
н/о н/о +15.1 +12.4 84 +14 +14 997.8 996.7
23 17.08 З 1
{3}
н/о н/о +14.8 +12.7 87 +15 +15 998.1 997.1
00 18.08 С 2
{15}
н/о н/о +14.3 +12.9 91 +14 +14 998.1 997.0
01 18.08 С 2
{2}
н/о н/о +14.3 +12.7 90 +14 +14 997.9 996.8
02 18.08 С 1
{3}
н/о н/о +14.0 +12.7 92 +14 +14 997.8 996.8
03 18.08 СЗ 1
{3}
н/о н/о +14.2 +12.1 87 +15 +15 997.7 996.7
04 18.08 Ю 3
{6}
н/о н/о +15.2 +11.2 77 +15 +15 997.8 996.7
05 18.08 С 2
{5}
н/о н/о +14.9 +11.5 80 +15 +15 997.9 996.8
06 18.08 С 2
{6}
н/о н/о +15.3 +11.3 77 +15 +15 997.8 996.8 +13.9 +17.9
07 18.08 СВ 3
{5}
н/о н/о +15.6 +12.0 79 +15 +15 998.1 997.1
08 18.08 СВ 4
{6}
н/о н/о +16.0 +11.6 75 +15 +15 998.2 997.1

 

Местоположение метеостанции Сволваер аэропорт (Норвегия): широта 68.25 долгота 14.67 высота над уровнем моря 9 м.

В архиве по умолчанию представлена погода в Сволваер аэропорту за последнюю неделю. Архивные данные за месяц целиком и за предыдущие месяцы, начиная с января 2011 года, Вы можете получить, выбрав интересующий диапазон дат из раскрывающегося списка и нажав кнопку "Ввод!".


*Определитесь, кто Вы:
робот инопланетянин человек

Внимание! Время в таблицах - всемирное. Для получения местного времени необходимо прибавить поправку, которая равна 1 ч.

Смотрите также архив погоды в соседних городах и на ближайших метеорологических станциях:

Погода на Маяке Skrova (Норвегия) (11 км)
Погода в Стокмаркнес аэропорту (Норвегия) (40 км)
Погода в Бё (Норвегия) (41 км)
Погода в Лекнесе (Норвегия) (45 км)
Погода на Маяке Rotvaer (Норвегия) (54 км)
Погода в Сортланне (Норвегия) (59 км)
Погода в Драге (Норвегия) (62 км)
Погода в Аэропорту Харстад/Нарвик (Норвегия) (87 км)
Погода в Харстаде (Норвегия) (97 км)
Погода в Хеллигвере (Норвегия) (100 км)

Пояснения к столбцам:

Ветер - указаны скорость ветра в м/с - средняя за 10 мин, порывы в срок и между сроками (в фигурных скобках) и направление, откуда дует ветер: С - северный, СВ - северо-восточный, В - восточный, ЮВ - юго-восточный, Ю - южный, ЮЗ - юго-западный, З - западный, СЗ - северо-западный.
Видимость - горизонтальная дальность видимости в метрах или километрах. При видимости от 1 до 10 км при отсутствии осадков обычно наблюдается дымка, при ухудшении видимости до 1 км и менее - туман. В сухую погоду видимость может ухудшаться дымом, пылью или мглою.
Явления - указаны атмосферные явления, наблюдавшиеся в срок или в последний час перед сроком; фигурными скобками обозначены явления, наблюдавшиеся между сроками (за 1-3 часа до срока); квадратными скобками обозначены град или гололедные отложения с указанием их диаметра в мм.
Облачность - указаны через наклонную черту общая и нижняя облачность в баллах и высота нижней границы облаков в метрах; квадратными скобками обозначены формы облаков: Ci - перистые, Cs - перисто-слоистые, Cc - перисто-кучевые, Ac - высококучевые, As - высокослоистые, Sc - слоисто-кучевые, Ns - слоисто-дождевые, Cu - кучевые, Cb - кучево-дождевые. Подробнее классификацию облаков см. в Атласе облаков (PDF).
T - Температура воздуха - температура, измеренная на высоте 2 м над землей.
Td - Температура точки росы - температура, при понижении до которой содержащийся в воздухе водяной пар достигнет насыщения.
f - Относительная влажность воздуха - влажноcть воздуха, измеренная на высоте 2 м над землей.
Te - Эффективная температура - температура, которую ощущает одетый по сезону человек в тени. Характеристика душности погоды. При расчете учитывается влияние влажности воздуха и скорости ветра на теплоощущения человека.
Tes - Эффективная температура на солнце - температура, которую ощущает человек, с поправкой на солнечный нагрев. Характеристика знойности погоды. Зависит от высоты солнца над горизонтом, облачности и скорости ветра. Ночью, в пасмурную погоду, а также при ветре 12 м/с и более поправка равна нулю.
P - Атмосферное давление - приведенное к уровню моря атмосферное давление.
Po - Атмосферное давление - измеренное на уровне метеостанции атмосферное давление.
Tmin - Минимальная температура - минимум температуры воздуха на высоте 2 м над землей.
Tmax - Максимальная температура - максимум температуры воздуха на высоте 2 м над землей.
R - Количество осадков - Количество выпавших осадков за период времени, мм. При наведении курсора мыши на число - период времени, за который выпало указанное количество осадков.
R24 - Количество осадков - Количество выпавших осадков за 24 часа, мм.
S - Снежный покров - Высота снежного покрова, см. При наведении курсора мыши на число - состояние снежного покрова и степень покрытия местности в баллах.